Location: Freistadt
(48.5112°N, 14.5013°E)
Time: 09:59:32
(UTC+02:00)

PCSat - Pass Details

Date: 28 March 2023
Orbit: 783 x 794 km, 67.1° (Epoch: 29 May)

Event Time Altitude Azimuth Distance (km) Brightness Sun altitude
Rises 00:16:42 0° 327° (NNW) 3,300 13.7 -37.5°
Reaches altitude 10° 00:19:29 10° 340° (NNW) 2,369 12.8 -37.7°
Enters shadow 00:22:34 24° 11° (N) 1,606 11.6 -37.8°
